Location: Berlise
(49.6641°N, 4.1077°E)
Time: 23:24:59
(UTC+00:00)

Meteor 1-21 Rocket - Pass Details

Date: 27 January 2021
Orbit: 834 x 906 km, 81.2° (Epoch: 01 March)

Event Time Altitude Azimuth Distance (km) Brightness Sun altitude
Exits shadow 04:18:01 52° 7° (N) 1,087 4.7 -29.7°
Maximum altitude 04:19:27 75° 76° (ENE) 917 4.3 -29.5°
Drops below altitude 10° 04:25:17 10° 163° (SSE) 2,559 6.8 -28.6°
Sets 04:27:45 0° 165° (SSE) 3,503 7.5 -28.2°
